Regional Weather Roundup
Issued by NWS

Home | Current Version | Previous Version | Graphics & Text | Print | Product List | Glossary On
Versions: 1 2 3 4 5 6 7 8 9 10 11 12 13 14 15 16 17 18 19 20 21 22 23 24 25 26 27 28 29 30 31 32 33 34 35 36 37 38 39 40 41 42 43 44 45 46 47 48 49 50
000
ASUS43 KLOT 181506
RWRIL

ILLINOIS REGIONAL WEATHER ROUNDUP
NATIONAL WEATHER SERVICE CHICAGO/ROMEOVILLE IL
900 AM CST THU DEC 18 2014

NOTE: "FAIR" INDICATES FEW OR NO CLOUDS BELOW 12,000 FEET WITH NO
SIGNIFICANT WEATHER AND/OR OBSTRUCTIONS TO VISIBILITY.

* THESE STATIONS ARE NOT UNDER NWS QUALITY CONTROL. THEY ALSO MAY NOT
  REPORT WEATHER SUCH AS PRECIPITATION OR FOG.

ILZ001-002-007-009-015-016-024-181600-
NORTHWEST ILLINOIS

CITY           SKY/WX    TMP DP  RH WIND       PRES   REMARKS
MOLINE         CLOUDY    22  17  81 CALM      30.31S
STERLING*      PTSUNNY   21  16  79 CALM      30.32S
SAVANNA*       PTSUNNY   19  16  90 CALM      30.32S
$$

ILZ003-004-008-010-011-017-018-181600-
NORTH CENTRAL ILLINOIS

CITY           SKY/WX    TMP DP  RH WIND       PRES   REMARKS
ROCKFORD       CLOUDY    20  14  77 CALM      30.33R
FREEPORT*      MOSUNNY   18  15  87 CALM      30.32R
ROCHELLE*      CLOUDY    22  16  79 W5        30.31S WCI  15
DE KALB*       MOSUNNY   20  15  81 NW3       30.30R
PERU*          CLOUDY    23  20  89 CALM      30.33R
$$

ILZ005-006-012>014-019>023-181600-
NORTHEAST ILLINOIS

CITY           SKY/WX    TMP DP  RH WIND       PRES   REMARKS
CHICAGO-OHARE  PTSUNNY   22  15  75 W6        30.29S WCI  14
CHICAGO-MIDWAY CLOUDY    25  16  68 W5        30.31R WCI  19
AURORA         CLOUDY    24  15  68 W3        30.31R
LANSING*       CLOUDY    25  18  73 SW6       30.31R WCI  18
JOLIET*        CLOUDY    24  16  73 CALM      30.32R
WAUKEGAN       PTSUNNY   20  15  81 W6        30.28R WCI  12
DUPAGE AIRPORT FAIR      23  15  71 W6        30.30R WCI  16
KANKAKEE*      CLOUDY    25  19  78 SW3       30.33R
WHEELING       MOSUNNY   21  15  78 W5        30.32R WCI  15
MORRIS*        PTSUNNY   24  20  85 W3        30.31S
ROMEOVILLE*    CLOUDY    24  17  74 W3        30.31R
NORTHERLY ISL    N/A     25  16  68 W7          N/A  WCI  17
$$

LMZ740>746-181600-
SOUTHERN LAKE MICHIGAN

STATION/POSITION SKY/WX   TEMP    WIND        PRES    VSBY  WAVE
                          AIR SEA DIR/SP/G                  HT/PER
                          (F)     (DEG/KT/KT) (MB)    (MI)  (FT/S)
WAUKEGAN HARBOR            21     280/  8/ 13   N/A
HARRISON CRIB              23     270/  9/ 11   N/A
BURNHAM HARBOR             25     270/  4/  8   N/A
CALUMET HARBOR             25     240/  3/  5 1024.7R
$$

ILZ025>027-034>036-040-047-049-050-058-095>099-181600-
WEST-CENTRAL ILLINOIS

CITY           SKY/WX    TMP DP  RH WIND       PRES   REMARKS
QUINCY         LGT SNOW  26  23  88 NE5       30.29S FOG     WCI  20
GALESBURG*     CLOUDY    23  20  88 CALM      30.31R
MACOMB*        CLOUDY    23  21  91 E3        30.33R
JACKSONVILLE*  LGT SNOW  28  25  91 NE3       30.31R
PITTSFIELD*    LGT RAIN  27  25  91 CALM      30.31R
$$

ILZ028>032-037-038-041>044-048-051>054-059>061-181600-
CENTRAL ILLINOIS

CITY           SKY/WX    TMP DP  RH WIND       PRES   REMARKS
PONTIAC        MOSUNNY   22  20  91 CALM      30.33S
BLOOMINGTON    PTSUNNY   24  20  85 CALM      30.31R
DECATUR        CLOUDY    26  21  81 CALM      30.32R HAZE
PEORIA         CLOUDY    24  19  81 E3        30.32R
LACON*         CLOUDY    21  18  89 CALM      30.31F
LINCOLN*       CLOUDY    26  23  88 CALM      30.33S
SPRINGFIELD    LGT SNOW  27  22  81 CALM      30.31F
TAYLORVILLE    LGT SNOW  27  23  86 NE3       30.31F
$$

ILZ033-039-045-046-055>057-062-063-181600-
EAST-CENTRAL ILLINOIS

CITY           SKY/WX    TMP DP  RH WIND       PRES   REMARKS
CHAMPAIGN      CLOUDY    26  21  81 W3        30.31S
DANVILLE*      CLOUDY    25  18  76 CALM      30.29S
MATTOON        CLOUDY    26  18  71 CALM      30.30S
PARIS*         CLOUDY    27  22  82 CALM      30.32S
$$

ILZ079-100>102-181600-
SOUTHWEST ILLINOIS

CITY           SKY/WX    TMP DP  RH WIND       PRES   REMARKS
ALTON          CLOUDY    28  23  80 E7        30.31S WCI  21
BELLEVILLE     CLOUDY    30  28  91 VRB5      30.31R WCI  25
CAHOKIA*       LGT SNOW  31  27  85 NE6       30.31S FOG     WCI  25
SPARTA*        LGT SNOW  29  28  95 CALM      30.31S
$$

ILZ064>066-069>071-074>076-080>082-084>086-088>090-092>094-181600-
SOUTH-CENTRAL ILLINOIS

CITY           SKY/WX    TMP DP  RH WIND       PRES   REMARKS
CARBONDALE     LGT SNOW  31  28  89 NE3       30.32R FOG
CAIRO*         CLOUDY    36  35  96 N5        30.30R FOG     WCI  32
EFFINGHAM*     CLOUDY    28  21  76 CALM      30.34R
MARION         LGT SNOW  32  30  93 NE5       30.32R WCI  27
MT. VERNON     CLOUDY    28  21  74 N5        30.32S WCI  23
CENTRALIA*     PTSUNNY   28  24  84 NE3       30.32R FOG
SALEM*         CLOUDY    29  25  84 CALM      30.33R FOG
METROPOLIS*    DRIZZLE   33  33 100 NE3       30.29R
$$

ILZ067-068-072-073-078-083-087-091-181600-
SOUTHEAST ILLINOIS

CITY           SKY/WX    TMP DP  RH WIND       PRES   REMARKS
LAWRENCEVILLE  CLOUDY    28  22  78 CALM      30.34R HAZE
FLORA*         PTSUNNY   28  23  82 CALM      30.33R
FAIRFIELD*     CLOUDY    29  25  85 N6        30.30F WCI  22
HARRISBURG*    CLOUDY    31  28  87 CALM      30.34R
ROBINSON*      CLOUDY    27  22  83 CALM      30.34R
CARMI*         CLOUDY    31  29  90 N7        30.30F WCI  25
$$

ABBREVIATIONS USED IN REMARKS
   TC - TEMPERATURE IN CELSIUS
  WCI - WIND CHILL INDEX
   HX - HEAT INDEX
  VSB - VISIBILITY
$$



USA.gov is the U.S. government's official web portal to all federal, state and local government web resources and services.